Regional Weather Roundup
Issued by NWS

Home | Current Version | Previous Version | Graphics & Text | Print | Product List | Glossary On
Versions: 1 2 3 4 5 6 7 8 9 10 11 12 13 14 15 16 17 18 19 20 21 22 23 24 25 26 27 28 29 30 31 32 33 34 35 36 37 38 39 40 41 42 43 44 45 46 47 48 49 50
288
ASUS43 KMPX 241001
RWRMN
WEATHER ROUNDUP FOR MINNESOTA
NATIONAL WEATHER SERVICE TWIN CITIES/CHANHASSEN MN
500 AM CDT SUN SEP 24 2017


NOTE: "FAIR" INDICATES FEW OR NO CLOUDS BELOW 12,000 FEET WITH NO
SIGNIFICANT WEATHER AND/OR OBSTRUCTIONS TO VISIBILITY. N/A MEANS
CURRENT SKY AND/OR WEATHER CONDITIONS ARE NOT AVAILABLE.

MNZ060>063-068>070-241100-
   Twin Cities Metro

CITY           SKY/WX    TMP DP  RH WIND       PRES   REMARKS
TWIN CITIES    PTCLDY    75  64  68 S7        29.94R
ST PAUL        PTCLDY    69  66  90 CALM      29.94S
CRYSTAL        PTCLDY    69  62  78 S6        29.92S
BLAINE         PTCLDY    72  66  83 S7        29.94R
LAKEVILLE      CLEAR     64  64 100 CALM      29.94S
EDEN PRAIRIE   PTCLDY    70  63  78 SE6       29.93R
SOUTH ST PAUL  CLEAR     69  64  81 CALM      29.94R
LAKE ELMO      FAIR      70  63  78 CALM      29.96S
$$
MNZ001>005-007-008-013>017-022>024-027-028-241100-
   Northwest Minnesota

CITY           SKY/WX    TMP DP  RH WIND       PRES   REMARKS
BEMIDJI        LGT RAIN  57  57  99 E8        29.90F
HALLOCK        RAIN      52  52 100 N9        29.96S
ROSEAU         LGT RAIN  55  50  82 NE3       29.95R
WARROAD        DRIZZLE   55  52  88 NE9       29.95R
CROOKSTON      LGT RAIN  55  54  94 NE5       29.91F
FOSSTON        LGT RAIN  54  54 100 N5        29.91F
DETROIT LAKES  CLOUDY    61  59  94 SE8       29.87F
MOORHEAD       RAIN      55  55 100 N8        29.86F
PARK RAPIDS    CLOUDY    60  59  96 SE6       29.89F
MAHNOMEN       CLOUDY    59  58  98 CALM      29.88F
$$
MNZ006-009>011-018-025>026-241100-
   North Central Minnesota

CITY           SKY/WX    TMP DP  RH WIND       PRES   REMARKS
BAUDETTE       LGT RAIN  55  55 100 E8        29.94F
FLAG ISLAND    DRIZZLE   54  54 100 NE6       29.93F
INTL FALLS     LGT RAIN  58  56  93 E3        29.95R
WASKISH        CLOUDY    55  55 100 E7        29.94S
BIG FORK       CLOUDY    57  57 100 CALM      29.94S
LONGVILLE      MOCLDY    61  61 100 CALM      29.92S
GRAND RAPIDS   LGT RAIN  60  59  96 CALM      29.96F
CRANE LAKE     CLOUDY    57  57 100 CALM      29.98S
ORR            RAIN      57  55  94 CALM      29.93F
COOK           CLOUDY    59  57  94 NE3G30    29.95S
WALKER         CLOUDY    58  58  99 CALM      29.91F
$$
MNZ012-019>021-037-241100-
   Northeast Minnesota

CITY           SKY/WX    TMP DP  RH WIND       PRES   REMARKS
DULUTH         CLOUDY    64  64 100 E12       29.96F
ELY            CLOUDY    59  59 100 CALM      29.97F
HIBBING        CLOUDY    58  58 100 SE3       29.95F
EVELETH        LGT RAIN  60  57  90 NE3       29.96F
DULUTH HARBOR  CLOUDY    64  63  94 E6        29.96S
GRAND MARAIS     N/A     62  62 100 CALM      29.97S
$$
MNZ029>031-032-039>041-046>048-054>057-064-241100-
   West Central Minnesota

CITY           SKY/WX    TMP DP  RH WIND       PRES   REMARKS
FERGUS FALLS   MOCLDY    63  63 100 SE9       29.83F
WHEATON        CLOUDY    63  61  94 S6        29.86R
ALEXANDRIA     CLOUDY    61  61 100 E12       29.90F FOG
ELBOW LAKE     FAIR      62  62  99 SE12      29.85F
WADENA         PTCLDY    59  59 100 E9        29.88F
GLENWOOD       FOG       61  61 100 E10       29.90F VSB 1/2
APPLETON       FOG       63  61  94 E10       29.85F VSB 1
BENSON         CLOUDY    63  61  94 SE9       29.89F FOG
ORTONVILLE     CLOUDY    61  61 100 NE9       29.86S FOG
MADISON        FOG       64  64 100 SE7       29.87F VSB 1/4
WILLMAR        CLOUDY    64  64 100 E7        29.91S FOG
$$
MNZ033>034-036-042>043-049>051-058-059-241100-
   Central Minnesota

CITY           SKY/WX    TMP DP  RH WIND       PRES   REMARKS
ST CLOUD       CLEAR     62  62 100 CALM      29.92F
SAUK CENTRE    FOG       60  60  99 E5        29.91F VSB 1/2
PAYNESVILLE    FOG       63  64 100 E5        29.92F VSB 1/2
AITKIN         CLOUDY    61  57  88 CALM      29.93F
PINE RIVER     CLOUDY    57  57 100 SE5       29.95F
BRAINERD       FOG       60  60 100 E5        29.92F VSB 1
STAPLES        LGT RAIN  59  59 100 E5        29.91F
LITTLE FALLS   FOG       59  59 100 CALM      29.92F VSB 1
LITCHFIELD     FOG       64  64 100 CALM      29.92F VSB 3/4
BUFFALO        CLEAR     69  64  82 SE5       29.93S
MAPLE LAKE     CLEAR     65  64  97 CALM      29.93S
HUTCHINSON     CLOUDY    66  65  95 CALM      29.92S
$$
MNZ037-044-045-052-053-241100-
   East Central Minnesota

CITY           SKY/WX    TMP DP  RH WIND       PRES   REMARKS
PRINCETON      PTCLDY    64  63  94 CALM      29.93R FOG
MORA             N/A     59  59 100 CALM      29.95F FOG
RUSH CITY      MOCLDY    66  64  96 SE6       29.94R
MOOSE LAKE     CLOUDY    63  61  94 CALM      29.93S FOG
HINCKLEY       FOG       63  63 100 CALM      29.94S VSB 3/4
CLOQUET        CLEAR     63  61  94 CALM      29.96R
MCGREGOR       CLOUDY    61  59  94 E3        29.94F
$$
MNZ071>073-080-081-089-090-097-098-241100-
   Southwest Minnesota

CITY           SKY/WX    TMP DP  RH WIND       PRES   REMARKS
MONTEVIDEO     FOG       63  63 100 S8        29.88F VSB 1/2
GRANITE FALLS  FOG       62  62  98 SE6       29.91S VSB 3/4
CANBY          FOG       60  59  97 E7        29.89F VSB 1/2
MARSHALL       FOG       57  57 100 SE10      29.89F VSB 1/2
REDWOOD FALLS  FOG       61  59  93 SE7       29.90F VSB 1/4
OLIVIA         FOG       63  61  94 SE6       29.90S VSB 3/4
PIPESTONE      MOCLDY    63  61  94 SE9       29.89F
WORTHINGTON    CLEAR     58  57  97 SE6       29.93S
JACKSON        CLEAR     66  61  82 CALM      29.94S
TRACY          FOG       57  57 100 S3        29.91F VSB 1/2
SLAYTON        FOG       56  52  84 SE3       29.93S VSB 1/4
$$
MNZ065>067-074>077-082>085-091>093-241100-
   South Central Minnesota

CITY           SKY/WX    TMP DP  RH WIND       PRES   REMARKS
MANKATO        CLEAR     68  63  84 S6        29.94S
NEW ULM        PTCLDY    64  63  94 S5        29.92S
ST JAMES       CLEAR     63  63 100 SE6       29.93F
FAIRMONT       CLEAR     67  64  90 S6        29.94S
FARIBAULT      CLEAR     72  63  73 SE9       29.96R
OWATONNA       CLEAR     72  63  73 S12       29.96S
WASECA         CLEAR     68  61  77 SE8       29.96S
ALBERT LEA     CLEAR     72  64  78 S3        29.97R
$$
MNZ078>079-086>088-094>096-241100-
   Southeast Minnesota

CITY           SKY/WX    TMP DP  RH WIND       PRES   REMARKS
ROCHESTER      CLEAR     67  62  84 S8        30.00S
RED WING       CLEAR     72  61  68 E3        29.95S
STANTON        CLEAR     71  62  73 S6        29.94S
DODGE CENTER   CLEAR     66  61  82 SE8       29.98S
WINONA         CLEAR     75  61  60 CALM      29.99S
AUSTIN         CLEAR     70  61  73 S5        29.98S
PRESTON        CLEAR     68  61  76 S5        30.01S
$$
ABBREVIATIONS USED IN REMARKS
   TC - TEMPERATURES IN CELSIUS
  WCI - WIND CHILL INDEX
   HX - HEAT INDEX
  VSB - VISIBILITY
$$




USA.gov is the U.S. government's official web portal to all federal, state and local government web resources and services.